TimeEDT,TemperatureF,Dew PointF,Humidity,Sea Level PressureIn,VisibilityMPH,Wind Direction,Wind SpeedMPH,Gust SpeedMPH,PrecipitationIn,Events,Conditions,WindDirDegrees,DateUTC
12:15 AM,35.6,30.2,81,30.31,10.0,Calm,Calm,-,N/A,,Mostly Cloudy,0,2013-03-11 04:15:00
12:51 AM,35.6,30.2,81,30.32,10.0,WNW,3.5,-,N/A,,Overcast,300,2013-03-11 04:51:00
12:53 AM,36.0,30.9,82,30.33,10.0,Calm,Calm,-,N/A,,Overcast,0,2013-03-11 04:53:00
1:53 AM,36.0,30.9,82,30.31,10.0,SSW,4.6,-,N/A,,Overcast,200,2013-03-11 05:53:00
3:53 AM,36.0,32.0,86,30.27,10.0,Calm,Calm,-,N/A,,Overcast,0,2013-03-11 07:53:00
4:53 AM,36.0,34.0,93,30.27,5.0,Calm,Calm,-,N/A,,Overcast,0,2013-03-11 08:53:00
5:53 AM,36.0,34.0,93,30.27,3.0,SSE,3.5,-,N/A,,Overcast,150,2013-03-11 09:53:00
6:29 AM,35.6,33.8,93,30.24,4.0,SE,4.6,-,N/A,,Overcast,130,2013-03-11 10:29:00
6:53 AM,36.0,34.0,93,30.26,7.0,SE,3.5,-,N/A,,Overcast,140,2013-03-11 10:53:00
7:53 AM,37.0,34.0,89,30.25,6.0,Calm,Calm,-,N/A,,Overcast,0,2013-03-11 11:53:00
8:29 AM,37.4,35.6,93,30.25,5.0,SE,3.5,-,N/A,,Overcast,140,2013-03-11 12:29:00
8:37 AM,37.4,35.6,93,30.25,2.0,SE,3.5,-,N/A,,Overcast,130,2013-03-11 12:37:00
8:53 AM,37.9,35.1,89,30.27,2.0,SE,4.6,-,N/A,,Overcast,130,2013-03-11 12:53:00
9:30 AM,39.2,35.6,87,30.26,4.0,SE,5.8,-,N/A,,Overcast,140,2013-03-11 13:30:00
9:53 AM,39.9,36.0,86,30.27,4.0,SSE,3.5,-,N/A,,Overcast,150,2013-03-11 13:53:00
10:06 AM,41.0,37.4,87,30.26,7.0,SE,3.5,-,N/A,,Overcast,140,2013-03-11 14:06:00
10:53 AM,45.0,37.9,76,30.27,10.0,SW,4.6,-,N/A,,Overcast,230,2013-03-11 14:53:00
11:50 AM,46.4,37.4,71,30.23,10.0,SSW,9.2,-,N/A,,Partly Cloudy,200,2013-03-11 15:50:00
11:53 AM,46.0,37.0,71,30.24,10.0,South,9.2,-,N/A,,Partly Cloudy,180,2013-03-11 15:53:00
12:53 PM,48.0,37.9,68,30.24,10.0,South,10.4,-,N/A,,Mostly Cloudy,170,2013-03-11 16:53:00
1:53 PM,51.1,37.9,61,30.20,10.0,SSW,6.9,-,N/A,,Clear,200,2013-03-11 17:53:00
2:53 PM,52.0,37.9,59,30.18,10.0,South,12.7,17.3,N/A,,Clear,180,2013-03-11 18:53:00
3:53 PM,51.1,37.9,61,30.17,10.0,South,11.5,-,N/A,,Clear,170,2013-03-11 19:53:00
4:53 PM,50.0,37.9,63,30.16,10.0,South,10.4,18.4,N/A,,Clear,170,2013-03-11 20:53:00
5:53 PM,48.9,39.0,69,30.15,10.0,South,10.4,-,N/A,,Clear,170,2013-03-11 21:53:00
6:33 PM,48.2,39.2,71,30.14,10.0,SSE,9.2,-,N/A,,Mostly Cloudy,150,2013-03-11 22:33:00
6:53 PM,48.0,41.0,77,30.15,10.0,SSE,6.9,-,N/A,,Mostly Cloudy,160,2013-03-11 22:53:00
7:53 PM,46.9,41.0,80,30.15,10.0,SSE,5.8,-,N/A,,Mostly Cloudy,150,2013-03-11 23:53:00
8:40 PM,46.4,42.8,87,30.14,10.0,SSE,5.8,-,N/A,,Mostly Cloudy,160,2013-03-12 00:40:00
8:53 PM,46.9,42.1,83,30.15,10.0,SSE,5.8,-,N/A,,Mostly Cloudy,150,2013-03-12 00:53:00
9:53 PM,46.9,43.0,86,30.13,9.0,SSE,11.5,-,N/A,,Overcast,150,2013-03-12 01:53:00
10:53 PM,46.9,44.1,90,30.12,8.0,SSE,8.1,-,N/A,,Overcast,160,2013-03-12 02:53:00
11:53 PM,46.9,44.1,90,30.11,8.0,SSE,5.8,-,N/A,,Overcast,160,2013-03-12 03:53:00